Regional Weather Roundup
Issued by NWS

Home | Current Version | Previous Version | Graphics & Text | Print | Product List | Glossary On
Versions: 1 2 3 4 5 6 7 8 9 10 11 12 13 14 15 16 17 18 19 20 21 22 23 24 25 26 27 28 29 30 31 32 33 34 35 36 37 38 39 40 41 42 43 44 45 46 47 48 49 50
000
ASUS43 KLSX 281907
RWRMO

WEATHER SUMMARY FOR MISSOURI
NATIONAL WEATHER SERVICE SPRINGFIELD MO
100 PM CST SAT FEB 28 2015

NOTE: "FAIR" INDICATES FEW OR NO CLOUDS BELOW 12,000 FEET WITH NO
       SIGNIFICANT WEATHER AND/OR OBSTRUCTIONS TO VISIBILITY.
       CURRENT SKY AND/OR WEATHER CONDITIONS ARE NOT AVAILABLE FOR
       CHILLICOTHE AND FARMINGTON.

MOZ001>031-035>038-043-044-053-054-282000-
...NORTHERN AND WESTERN MISSOURI...

CITY           SKY/WX    TMP DP  RH WIND       PRES   REMARKS
KANSAS CTY INT LGT SNOW  21  16  81 SE8       30.44F WCI  11
KANSAS C DTWN  LGT SNOW  23  17  78 E8        30.47F VSB 3/4 WCI  14
LEE`S SUMMIT   LGT SNOW  21  17  84 E8        30.46F VSB 3/4 WCI  11
ST JOSEPH      SNOW      22  18  85 SE7       30.47F VSB 1/2 WCI  13
CHILLICOTHE      N/A     24  17  74 VRB3      30.50F
KIRKSVILLE     LGT SNOW  22  13  68 SE9       30.50F WCI  12

$$
MOZ066>068-077>081-088>096-101>105-282000-
...SOUTHWEST MISSOURI...

CITY           SKY/WX    TMP DP  RH WIND       PRES   REMARKS
SPRINGFIELD    SNOW      23  19  85 SE9       30.42F VSB 1/2 WCI  13
JOPLIN         SNOW      24  20  84 E7        30.43F VSB 1/2 WCI  16

$$
MOZ032>034-039>042-045>050-055>058-069>072-282000-
...CENTRAL MISSOURI...

CITY           SKY/WX    TMP DP  RH WIND       PRES   REMARKS
COLUMBIA       LGT SNOW  23  19  85 SE6       30.49F VSB 3/4 WCI  16
JEFFERSON CITY   N/A     24  19  81 MISG      30.52F
ROLLA          SNOW      22  18  85 E6        30.46F VSB 1/2 WCI  14
SEDALIA        LGT SNOW  24  19  81 SE7       30.48F VSB 1   WCI  16
WHITEMAN AFB   SNOW      23  18  83 SE6       30.46F VSB 1/2 WCI  15
WARRENSBURG    LGT SNOW  23  19  86 SE5       30.48F WCI  17
OSAGE BEACH    CLOUDY    23  19  86 E6        30.48F VSB 1/2 WCI  16

$$
MOZ051-052-059>065-282000-
...EAST CENTRAL MISSOURI...

CITY           SKY/WX    TMP DP  RH WIND       PRES   REMARKS
ST LOUIS INTL  FLURRIES  27  12  53 SE10      30.55F WCI  17
SPIRIT OF STL  LGT SNOW  26  11  52 S8        30.54F WCI  18
ST CHARLES     CLOUDY    26  13  57 SE8       30.55F WCI  18

$$
MOZ072>076-082>087-097>100-106>115-282000-
...SOUTH CENTRAL AND SOUTHEAST MISSOURI...

CITY           SKY/WX    TMP DP  RH WIND       PRES   REMARKS
CAPE GIRARDEAU CLOUDY    30  13  49 SE3       30.54F
FARMINGTON     CLOUDY    27  19  74 E7        30.53F WCI  19
POPLAR BLUFF   CLOUDY    27  16  63 NE9       30.52F WCI  18
WEST PLAINS    LGT SNOW  23  18  81 E7        30.47F VSB 3/4 WCI  15

$$



USA.gov is the U.S. government's official web portal to all federal, state and local government web resources and services.